Regional Weather Roundup
Issued by NWS

Home | Current Version | Previous Version | Graphics & Text | Print | Product List | Glossary On
Versions: 1 2 3 4 5 6 7 8 9 10 11 12 13 14 15 16 17 18 19 20 21 22 23 24 25 26 27 28 29 30 31 32 33 34 35 36 37 38 39 40 41 42 43 44 45 46 47 48 49 50
291
ASUS43 KOAX 282102
RWRNE

WEATHER ROUNDUP FOR NEBRASKA
NATIONAL WEATHER SERVICE OMAHA NE
400 PM CDT TUE MAR 28 2017

NOTES: SATELLITE DATA IS BEING USED TO AUGMENT CLOUD COVER ABOVE
       12000 FEET.
       "FAIR" INDICATES FEW OR NO CLOUDS BELOW 12,000 FEET WITH NO
       SIGNIFICANT WEATHER AND/OR OBSTRUCTIONS TO VISIBILITY.

  * THESE STATIONS DO NOT REPORT WEATHER SUCH AS RAIN...SNOW OR FOG.

NEZ001>004-019>022-054>056-282200-
NEBRASKA PANHANDLE

CITY           SKY/WX    TMP DP  RH WIND       PRES   REMARKS
SCOTTSBLUFF    RAIN      45  42  89 E9        29.95R FOG
ALLIANCE       LGT RAIN  43  41  93 E18       29.95S FOG
CHADRON        LGT RAIN  45  42  89 NE8       30.01S FOG
KIMBALL        LGT RAIN  44  44 100 E14       29.92R
SIDNEY         LGT RAIN  43  41  93 E18       29.92F FOG
$$

NEZ057>060-069>072-079>082-282200-
SOUTHWEST NEBRASKA

CITY           SKY/WX    TMP DP  RH WIND       PRES   REMARKS
NORTH PLATTE   LGT RAIN  47  43  86 E10       30.00F FOG
IMPERIAL       LGT RAIN  45  43  93 SE16      29.96R FOG
LEXINGTON      CLOUDY    50  42  72 E14       29.99F
MCCOOK         LGT RAIN  47  46  97 E10       29.99F FOG
OGALLALA       LGT RAIN  46  44  94 E15       29.97S
$$

NEZ005>010-023>029-035>040-094-282200-
NORTH CENTRAL NEBRASKA

CITY           SKY/WX    TMP DP  RH WIND       PRES   REMARKS
VALENTINE      LGT RAIN  48  43  82 E9        30.05S
AINSWORTH      CLOUDY    49  41  73 E10       30.05S
BROKEN BOW     CLOUDY    49  40  71 E12       30.01F
O`NEILL        CLOUDY    53  39  58 E8        30.06S
ORD            CLOUDY    50  39  66 E12       30.03S
THEDFORD       CLOUDY    48  42  80 E9        30.03F
$$

NEZ041-046>049-061>064-073>077-083>087-282200-
SOUTH CENTRAL NEBRASKA

CITY           SKY/WX    TMP DP  RH WIND       PRES   REMARKS
GRAND ISLAND   CLOUDY    50  41  71 E14       30.03F
AURORA         CLOUDY    48  42  78 E16       30.03F
HASTINGS       CLOUDY    51  41  68 NE15      30.01F
HEBRON         CLOUDY    52  41  66 E16       29.99F
HOLDREGE       CLOUDY    51  40  67 E16       29.99S
KEARNEY *      CLOUDY    52  37  58 E16       30.01F
YORK           CLOUDY    48  41  76 E14       30.04F
$$

NEZ011>018-030>034-042>045-282200-
NORTHEAST NEBRASKA

CITY           SKY/WX    TMP DP  RH WIND       PRES   REMARKS
NORFOLK        SUNNY     55  40  56 E13G21    30.04F
ALBION         PTSUNNY   54  41  60 SE13      30.05S
BLAIR          CLOUDY    50  43  77 E10       30.06F
FREMONT        CLOUDY    50  42  73 E10G17    30.07F
TEKAMAH        CLOUDY    54  43  66 E8        30.06F
WAYNE          MOSUNNY   60  42  51 E15       30.04F
$$

NEZ050>053-065>068-078-088>093-282200-
SOUTHEAST NEBRASKA

CITY           SKY/WX    TMP DP  RH WIND       PRES   REMARKS
LINCOLN        CLOUDY    50  41  71 E9        30.07S
OMAHA EPPLEY   CLOUDY    50  41  71 E12       30.07F
BEATRICE       CLOUDY    52  42  67 E13G18    30.02F
FALLS CITY     CLOUDY    52  46  80 E10       30.04S
NEBRASKA CITY  CLOUDY    51  39  63 SE10      30.06S
$$

NEZ044-045-051>053-067-282200-
OMAHA AREA

CITY           SKY/WX    TMP DP  RH WIND       PRES   REMARKS
OMAHA EPPLEY   CLOUDY    50  41  71 E12       30.07F
BLAIR          CLOUDY    50  43  77 E10       30.06F
FREMONT        CLOUDY    50  42  73 E10G17    30.07F
MILLARD        CLOUDY    51  44  77 E9        30.08S
OFFUTT AFB     CLOUDY    49  42  75 E9        30.08R
WAHOO          CLOUDY    49  42  76 E10       30.07S
$$




USA.gov is the U.S. government's official web portal to all federal, state and local government web resources and services.